Wind_Speed
19 20 21 22 23 23 25 26 27 28 28 31 33 33 34 35 36 38 39 39 40 41 42 42 43 44 44 43 43 44 43 44 46 46 45 46 46 47 46 45 44 44 44 43
20 20 20 20 21 22 22 23 24 26 26 28 30 31 31 32 34 35 36 37 37 39 41 42 44 44 43 43 43 43 44 43 44 45 45 46 47 47 47 46 45 45 45 44
20 19 20 20 21 22 23 23 24 25 24 26 29 31 31 31 32 33 34 35 36 37 39 40 41 42 43 43 44 43 42 43 44 45 46 45 45 47 46 47 46 45 45 44
19 19 19 19 20 20 21 22 23 23 23 24 26 29 29 30 30 31 33 34 34 35 37 39 39 42 42 42 43 44 43 44 45 45 46 46 46 46 46 46 47 46 45 45
19 19 19 19 19 20 20 22 22 22 23 23 23 27 26 28 29 29 30 32 34 35 37 38 39 41 41 42 42 43 43 42 43 44 45 46 45 45 46 46 46 47 47 46
18 18 18 18 19 20 20 21 21 22 23 23 23 25 26 28 28 28 29 30 32 34 36 38 39 39 40 41 42 43 43 42 40 41 43 43 43 44 44 45 46 46 46 46
17 17 18 18 18 19 20 21 21 22 23 24 24 25 25 26 27 28 30 31 32 33 34 36 37 38 39 40 41 42 42 42 41 41 42 43 42 42 43 43 44 45 45 44
17 17 17 18 18 19 20 21 22 23 24 25 25 26 25 26 27 28 29 31 32 33 34 34 35 36 38 39 40 41 41 40 40 42 42 42 42 42 43 43 43 43 44 43
18 18 18 18 18 19 20 20 21 24 25 25 26 25 24 25 26 27 27 28 29 30 31 32 34 35 35 36 37 39 39 38 38 39 41 41 42 41 40 41 42 41 41 42
18 19 19 19 19 19 20 21 22 23 25 25 25 24 24 24 26 28 27 27 27 29 30 31 32 32 34 36 36 37 37 37 36 37 38 39 40 39 40 40 39 39 39 39
18 19 20 20 20 21 21 21 22 23 24 25 26 25 25 25 26 27 27 27 27 28 29 29 29 30 31 33 34 35 35 35 35 36 37 38 39 40 40 40 40 39 39 39
18 19 20 20 21 21 22 22 22 23 24 25 27 26 26 24 24 24 25 26 26 26 26 26 27 28 29 30 31 32 32 33 34 36 36 38 40 41 40 39 39 39 39 40
19 20 20 20 21 21 22 22 23 23 24 25 26 24 24 24 23 24 25 24 24 23 24 24 25 26 27 28 29 30 31 31 32 33 35 37 38 39 39 39 39 40 40 40
20 21 21 22 22 22 23 23 24 24 25 25 24 22 21 22 23 24 25 25 24 23 23 24 24 25 25 27 28 29 30 30 31 31 32 32 34 36 38 39 39 39 39 38
21 22 22 22 22 22 22 23 23 24 25 25 23 22 21 22 23 24 24 24 25 25 24 23 23 24 23 25 26 29 30 29 28 28 29 30 31 33 35 36 36 36 36 36
22 22 22 22 22 22 22 22 23 23 24 24 23 22 23 23 23 23 23 23 24 24 24 23 23 24 24 24 25 26 27 28 28 28 28 29 29 30 32 34 35 35 34 34
22 22 22 22 21 22 22 22 23 23 23 24 24 23 23 24 24 23 23 23 23 23 23 23 22 23 24 24 25 26 25 27 27 28 29 30 29 30 31 32 33 33 32 32
22 22 22 21 22 23 22 22 22 22 22 23 23 23 23 24 24 24 24 24 24 23 22 22 22 23 23 24 25 25 26 27 28 29 29 29 30 30 30 31 32 32 32 32
22 22 23 23 23 23 22 22 22 23 22 23 24 24 24 25 26 25 24 24 25 25 24 24 24 24 24 25 25 25 26 27 28 29 29 29 30 30 30 30 31 32 32 32
22 23 23 24 24 23 22 23 23 24 23 23 24 24 24 25 26 25 25 25 25 25 25 25 24 24 24 24 24 25 26 27 27 27 28 28 28 29 29 30 30 31 31 31
21 22 23 23 24 23 23 24 24 24 25 24 25 25 25 26 26 26 26 26 25 25 25 24 24 24 24 24 24 25 26 27 27 27 27 27 27 28 29 29 29 30 31 31
21 21 22 22 23 24 24 25 25 25 25 25 26 26 26 26 27 27 26 26 25 24 24 23 24 24 24 24 25 25 25 26 27 26 26 26 27 27 28 28 28 29 30 29
21 21 22 22 23 24 24 25 26 26 26 26 27 27 26 26 26 27 26 26 25 24 23 23 24 24 25 25 25 24 24 24 24 24 24 24 24 24 25 25 26 28 29 28
21 21 21 22 22 23 24 25 25 25 26 27 27 27 26 26 26 26 26 25 24 23 23 23 22 23 24 24 24 23 22 22 22 22 22 23 23 23 23 23 24 25 26 27
21 22 22 22 22 23 25 25 25 26 26 26 26 26 26 26 25 25 25 24 23 22 23 23 23 23 22 22 22 21 21 20 21 21 22 22 23 23 24 24 24 25 24 25
22 23 23 23 23 24 24 25 25 26 26 26 26 26 25 25 24 23 23 22 22 22 22 22 22 22 21 21 20 20 21 20 21 21 22 21 21 21 22 23 23 23 23 24
Wind_Direction
286 286 283 280 277 276 273 271 271 270 267 263 261 262 262 262 264 265 264 263 261 259 257 256 255 255 255 255 255 254 255 255 253 252 251 251 250 250 249 249 251 253 255 256
290 290 289 286 280 278 275 274 275 274 272 268 264 263 263 263 264 266 265 263 261 259 259 257 256 255 255 256 256 255 254 255 256 254 251 251 251 251 250 250 251 252 256 257
292 293 292 289 285 281 277 277 279 278 274 273 271 266 266 266 267 265 265 264 261 259 258 257 256 255 255 257 257 256 255 256 257 255 252 252 252 252 251 249 250 252 254 255
291 295 293 291 289 287 281 281 282 280 276 275 276 275 271 269 268 265 265 264 263 260 260 258 255 255 255 257 258 256 256 257 257 256 253 252 251 251 250 249 249 251 253 254
292 295 297 294 292 290 287 284 284 282 279 278 280 281 278 274 271 267 266 267 267 264 262 259 256 255 256 256 256 256 257 258 257 256 253 252 251 252 250 249 250 250 252 255
295 300 300 298 294 294 292 289 286 284 282 282 285 286 283 279 277 272 270 269 268 265 263 261 259 258 257 256 256 255 257 258 258 255 252 251 251 251 249 248 249 250 252 254
294 300 303 300 298 297 295 293 292 290 287 287 290 289 290 287 281 276 275 273 270 267 264 262 261 259 258 257 258 255 256 258 258 256 252 249 251 250 250 250 250 250 251 253
293 299 303 304 301 301 300 297 295 295 294 293 293 293 295 292 287 283 280 276 272 269 267 265 263 261 260 258 258 256 258 259 259 257 252 249 251 252 251 251 250 250 251 251
294 298 304 305 304 302 304 303 298 297 298 298 299 298 296 293 290 289 287 280 275 272 272 270 266 264 260 259 259 256 258 258 258 257 253 250 249 251 250 249 249 251 252 253
293 296 300 302 302 303 304 306 303 300 300 301 303 302 300 296 294 292 290 284 280 279 277 273 268 265 261 259 258 259 259 260 259 259 256 253 250 251 250 249 247 249 252 253
292 294 298 297 299 302 304 305 304 301 301 301 303 305 303 299 298 297 295 288 284 282 279 274 269 266 261 258 258 259 260 260 260 259 257 254 252 253 254 251 249 252 254 253
292 294 298 299 299 300 302 302 303 303 303 300 302 307 305 301 299 300 300 296 289 284 281 275 271 268 264 261 259 258 259 260 259 259 257 255 254 254 253 250 250 251 252 251
288 292 297 301 301 300 301 301 301 302 302 303 302 306 305 302 302 301 300 297 293 287 282 276 271 268 266 262 262 261 263 261 259 259 258 257 255 252 251 249 250 252 252 251
286 290 294 299 301 301 300 301 301 300 302 304 303 305 303 302 303 301 298 295 293 292 287 277 271 269 267 265 265 264 263 262 261 259 258 256 255 253 252 252 252 253 253 253
285 289 292 295 297 299 301 302 301 301 302 304 305 304 303 300 301 302 300 297 292 291 288 279 274 270 269 269 267 266 266 265 262 259 258 258 256 255 255 253 252 253 255 257
285 288 291 293 295 298 301 304 304 303 303 304 304 303 302 300 301 305 305 302 296 291 288 282 274 273 271 270 270 269 267 264 261 260 260 258 259 258 256 254 253 255 257 260
283 287 289 290 291 295 300 305 306 306 306 305 304 304 303 302 300 302 303 302 299 293 289 283 277 276 275 273 272 269 268 266 263 262 261 260 260 259 258 256 255 258 259 260
281 284 285 289 293 297 301 303 306 306 307 306 305 303 304 306 305 303 301 300 298 295 290 284 279 277 277 276 275 273 270 269 268 266 262 261 259 259 259 258 258 260 262 261
278 283 286 290 293 297 300 303 304 304 305 306 305 304 304 305 306 306 303 300 298 297 292 285 281 279 278 278 276 274 272 271 269 267 263 261 260 260 261 259 258 259 261 261
276 280 286 289 293 297 301 301 301 301 303 305 304 303 303 305 306 307 304 302 300 297 293 287 282 278 279 277 275 275 273 271 269 266 263 262 261 261 259 259 258 259 260 261
278 280 283 287 292 296 300 302 302 302 303 304 304 303 303 304 306 307 305 303 301 296 294 288 283 280 279 277 278 277 274 272 270 266 264 263 263 263 262 262 259 259 260 261
279 282 284 288 293 298 300 301 302 302 301 303 304 303 303 304 305 306 306 305 303 297 293 288 285 283 281 278 278 279 276 273 270 266 264 263 263 264 264 262 260 259 260 263
276 280 284 288 293 296 299 300 301 301 300 300 301 302 301 303 304 304 306 306 304 301 296 290 286 282 281 280 277 276 275 274 271 266 263 261 262 263 263 261 261 260 261 263
275 279 284 288 292 296 299 300 300 300 300 300 300 300 300 301 303 302 303 305 303 300 298 294 288 284 283 282 278 275 275 273 270 266 262 260 261 262 263 263 263 263 263 263
277 280 284 289 294 297 298 298 299 299 300 301 300 300 301 301 302 303 303 304 304 302 300 296 291 287 285 283 278 275 275 272 269 266 263 261 262 263 263 264 263 262 261 262
275 280 284 289 294 297 297 298 299 300 301 301 299 300 300 301 302 303 303 303 304 304 303 299 295 291 287 285 279 275 275 272 270 268 265 264 266 265 264 264 264 263 261 263
Height
5683 5683 5681 5679 5678 5677 5676 5675 5675 5675 5675 5674 5675 5675 5677 5678 5677 5678 5678 5678 5679 5681 5682 5683 5684 5686 5688 5690 5693 5695 5697 5700 5702 5704 5706 5709 5711 5714 5717 5720 5722 5724 5726 5728
5680 5678 5676 5674 5673 5672 5671 5670 5670 5669 5669 5668 5668 5668 5668 5668 5668 5668 5667 5668 5668 5670 5672 5673 5674 5675 5677 5680 5682 5685 5687 5689 5690 5693 5695 5697 5700 5703 5706 5709 5711 5714 5716 5718
5674 5674 5671 5670 5668 5667 5666 5665 5665 5664 5663 5662 5662 5662 5662 5661 5660 5659 5659 5659 5659 5660 5661 5662 5664 5666 5668 5670 5672 5675 5676 5678 5679 5681 5684 5686 5688 5691 5694 5698 5701 5703 5705 5708
5670 5669 5667 5665 5663 5662 5661 5660 5659 5658 5656 5656 5656 5654 5656 5654 5652 5652 5651 5651 5651 5651 5652 5653 5654 5656 5658 5661 5662 5664 5666 5668 5668 5670 5672 5675 5677 5680 5684 5687 5690 5693 5695 5697
5666 5665 5663 5661 5660 5658 5657 5656 5654 5653 5651 5651 5649 5647 5649 5647 5645 5645 5644 5643 5643 5643 5643 5644 5644 5646 5648 5650 5652 5654 5656 5657 5658 5659 5661 5663 5665 5669 5672 5676 5679 5682 5685 5687
5662 5660 5659 5657 5655 5654 5652 5651 5650 5648 5646 5646 5644 5641 5641 5640 5639 5638 5637 5636 5634 5634 5634 5634 5635 5637 5638 5640 5642 5644 5645 5647 5648 5650 5651 5652 5655 5658 5662 5665 5669 5672 5675 5677
5659 5657 5655 5653 5651 5650 5648 5647 5645 5643 5641 5640 5639 5635 5635 5634 5632 5630 5629 5628 5626 5625 5625 5626 5627 5628 5629 5631 5632 5634 5636 5637 5639 5640 5642 5643 5646 5648 5652 5656 5659 5662 5665 5668
5655 5654 5652 5649 5648 5646 5644 5643 5641 5639 5637 5636 5633 5631 5631 5628 5625 5623 5621 5619 5618 5617 5617 5617 5618 5619 5620 5622 5623 5625 5627 5629 5630 5631 5633 5635 5638 5640 5643 5646 5649 5652 5655 5657
5650 5650 5648 5645 5643 5642 5640 5638 5637 5634 5632 5630 5628 5627 5625 5622 5619 5617 5614 5612 5610 5609 5609 5608 5609 5610 5610 5612 5613 5616 5618 5619 5621 5622 5624 5626 5629 5631 5634 5637 5640 5643 5645 5648
5646 5645 5644 5642 5640 5638 5636 5634 5632 5629 5626 5624 5623 5621 5620 5616 5613 5611 5608 5605 5603 5602 5601 5600 5600 5601 5601 5603 5605 5607 5609 5610 5612 5614 5616 5618 5620 5622 5625 5627 5630 5633 5636 5639
5642 5641 5640 5638 5636 5634 5632 5630 5627 5624 5622 5619 5617 5619 5615 5611 5608 5605 5602 5599 5597 5595 5593 5592 5592 5592 5593 5594 5597 5599 5601 5602 5604 5605 5608 5610 5612 5613 5616 5619 5622 5624 5627 5630
5637 5636 5635 5633 5631 5629 5627 5625 5623 5621 5618 5615 5612 5615 5609 5606 5602 5599 5596 5593 5590 5588 5587 5586 5586 5586 5586 5588 5590 5592 5593 5594 5596 5598 5599 5601 5603 5604 5607 5610 5613 5616 5618 5621
5632 5632 5630 5629 5629 5626 5623 5621 5618 5616 5613 5610 5607 5610 5603 5600 5597 5594 5591 5588 5585 5583 5582 5581 5580 5580 5581 5582 5584 5585 5586 5587 5588 5590 5591 5593 5595 5597 5599 5602 5604 5606 5609 5612
5627 5626 5626 5625 5622 5620 5618 5616 5613 5610 5608 5605 5603 5602 5599 5595 5592 5590 5587 5584 5581 5579 5577 5576 5575 5575 5576 5576 5577 5578 5579 5580 5580 5581 5583 5585 5587 5589 5591 5593 5596 5598 5600 5603
5622 5621 5620 5619 5617 5615 5613 5611 5608 5605 5602 5600 5598 5595 5593 5590 5587 5585 5582 5579 5577 5574 5573 5572 5571 5571 5571 5571 5571 5571 5572 5572 5573 5574 5576 5577 5579 5581 5583 5585 5587 5589 5592 5594
5616 5616 5615 5614 5612 5610 5608 5606 5603 5600 5597 5595 5592 5590 5588 5585 5582 5579 5577 5574 5572 5569 5568 5566 5566 5565 5565 5565 5565 5565 5565 5566 5566 5567 5568 5570 5572 5573 5575 5576 5578 5580 5583 5585
5611 5610 5609 5608 5607 5605 5604 5602 5599 5596 5593 5590 5587 5586 5582 5580 5577 5575 5572 5570 5567 5564 5563 5561 5560 5560 5559 5559 5559 5559 5559 5559 5559 5560 5562 5563 5564 5566 5567 5569 5571 5572 5574 5576
5606 5604 5603 5602 5602 5600 5602 5597 5594 5591 5589 5585 5582 5580 5577 5575 5572 5569 5567 5564 5562 5560 5558 5556 5554 5554 5553 5552 5552 5552 5552 5552 5553 5553 5554 5555 5556 5558 5559 5561 5563 5565 5567 5568
5600 5599 5598 5597 5595 5595 5595 5592 5588 5586 5584 5580 5577 5575 5572 5569 5567 5565 5562 5559 5556 5554 5552 5550 5548 5547 5546 5545 5545 5545 5545 5545 5545 5546 5546 5547 5548 5550 5551 5553 5555 5557 5559 5560
5594 5593 5593 5591 5589 5589 5590 5586 5582 5581 5579 5576 5572 5570 5567 5564 5562 5561 5557 5554 5551 5548 5546 5544 5542 5541 5540 5539 5538 5538 5538 5538 5538 5538 5539 5539 5540 5542 5543 5545 5547 5549 5551 5552
5588 5588 5587 5585 5583 5584 5584 5580 5577 5576 5574 5570 5567 5564 5561 5559 5556 5554 5550 5548 5545 5542 5540 5538 5536 5535 5534 5533 5532 5531 5531 5531 5531 5531 5531 5532 5533 5534 5535 5537 5539 5541 5543 5544
5582 5582 5581 5580 5579 5581 5577 5574 5572 5570 5567 5564 5561 5558 5556 5553 5550 5547 5544 5541 5538 5536 5533 5531 5530 5529 5527 5526 5525 5525 5524 5523 5523 5523 5524 5524 5525 5526 5528 5529 5531 5533 5535 5536
5577 5577 5576 5576 5576 5573 5571 5568 5566 5563 5561 5558 5555 5553 5550 5547 5544 5542 5539 5536 5533 5530 5528 5526 5524 5523 5521 5520 5519 5518 5517 5516 5516 5516 5516 5517 5518 5519 5520 5522 5523 5525 5527 5528
5571 5571 5570 5570 5570 5567 5564 5562 5559 5557 5554 5552 5549 5547 5544 5541 5538 5536 5533 5530 5527 5524 5522 5520 5518 5516 5515 5513 5512 5511 5511 5510 5510 5509 5510 5510 5512 5513 5514 5515 5516 5517 5519 5520
5565 5565 5564 5564 5564 5561 5559 5556 5553 5551 5548 5545 5543 5540 5537 5535 5532 5529 5527 5524 5521 5519 5517 5514 5512 5510 5509 5507 5506 5505 5505 5504 5504 5504 5504 5505 5505 5506 5507 5508 5509 5510 5512 5513
5560 5559 5559 5558 5557 5555 5553 5550 5547 5545 5542 5539 5537 5534 5531 5529 5526 5523 5521 5518 5516 5514 5512 5509 5507 5505 5504 5502 5501 5500 5499 5498 5498 5498 5498 5499 5499 5500 5501 5502 5503 5503 5505 5506